Home > Weather > Hartford > Past weeks

Flag for USA Past Weather in Hartford, Connecticut, USA — Yesterday and Last 2 Weeks

Now
72 °F

Sunny.


Feels Like: 71 °F
Forecast: 69 / 93 °F
Wind: No wind

Location: Hartford-Brainard Airport

Current Time: Jul 27, 2016 at 7:41:55 AM

Latest Report: Jul 27, 2016 at 6:53 AM


Visibility: 10 mi

Pressure: 29.95 "Hg

Humidity: 84%

Dew Point: 67 °F

Location of HartfordLocation

Past Weather in Hartford — Graph

°F

Hartford Temperature Yesterday

Maximum temperature yesterday: 94 °F (at 2:53 PM)
Minimum temperature yesterday: 72 °F (at 3:53 AM)
Average temperature yesterday: 84 °F

High & Low Weather Summary for the Past Weeks

 TemperatureHumidityPressure
High99 °F (Jul 22, 4:53 PM)94% (Jul 14, 6:00 AM)30.24 "Hg (Jul 14, 6:00 AM)
Low59 °F (Jul 20, 5:53 AM)27% (Jul 21, 2:53 PM)29.73 "Hg (Jul 22, 6:53 PM)
Average81 °F61%29.96 "Hg
* Reported Jul 12 5:53 AM — Jul 27 5:53 AM, Hartford, Weather by CustomWeather, © 2016

Note: Actual official high and low records may vary slightly from our data, if they occured in-between our weather recording intervals... More about our weather records

Advertising

Hartford Weather History for the Previous 24 Hours

Scroll right to see more
 ConditionsComfort  
Time TempWeatherWind HumidityBarometerVisibility
5:53 AM
Wed, Jul 27
70 °FClear.No wind84%29.93 "Hg10 mi
4:53 AM71 °FClear.No wind81%29.92 "Hg10 mi
3:53 AM72 °FClear.3 mph81%29.92 "Hg10 mi
2:53 AM73 °FClear.No wind69%29.92 "Hg10 mi
1:53 AM78 °FClear.6 mph58%29.92 "Hg10 mi
12:53 AM80 °FClear.5 mph54%29.92 "Hg10 mi
11:53 PM
Tue, Jul 26
81 °FClear.7 mph53%29.91 "Hg10 mi
10:53 PM83 °FClear.7 mph48%29.90 "Hg10 mi
9:53 PM84 °FClear.10 mph46%29.90 "Hg10 mi
8:53 PM86 °FSunny.8 mph42%29.86 "Hg10 mi
7:53 PM88 °FSunny.10 mph38%29.84 "Hg10 mi
6:53 PM91 °FSunny.10 mph33%29.83 "Hg10 mi
5:53 PM92 °FSunny.13 mph32%29.82 "Hg10 mi
4:53 PM93 °FScattered clouds.14 mph31%29.82 "Hg10 mi
3:53 PM93 °FPassing clouds.12 mph32%29.82 "Hg10 mi
2:53 PM94 °FPassing clouds.8 mph32%29.83 "Hg10 mi
1:53 PM92 °FPassing clouds.12 mph36%29.83 "Hg10 mi
12:53 PM91 °FSunny.7 mph37%29.84 "Hg10 mi
11:53 AM90 °FPassing clouds.14 mph38%29.85 "Hg10 mi
10:53 AM87 °FMostly cloudy.7 mph50%29.85 "Hg10 mi
9:53 AM84 °FSunny.6 mph57%29.86 "Hg10 mi
8:53 AM83 °FSunny.7 mph57%29.87 "Hg10 mi
7:53 AM78 °FSunny.No wind74%29.86 "Hg10 mi
Weather by CustomWeather, © 2016

See weather overviewHow to use our weather pages